Content
SEND FEEDBACK

Daily
Averages
Monthly
Summary
United States of America

FULTON, NEW YORK


Home > North America > United States > New York
Elevation: 469 feet     Latitude: 43 21N     Longitude: 076 23W

WEATHER
 
SELECT A DAY
Number of Records: 213,862;   Date Range: 5/22/97 - 10/24/14
 
SHARE

PRINT THIS DATA

[ ← Previous Day ]
WEATHER ALMANAC - JANUARY 31, 2013
[ Next Day → ]
[ °C ]   °F
Weather ElementAverageHighLow
Temperature36.8 °F53.6 °F (2:21 am)26.1 °F (11:54 pm)
Dewpoint24.8 °F51.8 °F (2:21 am)9 °F (4:54 pm)
Humidity63.3 %94 % (2:21 am)37 % (4:54 pm)
Barometer29.30 in29.66 in (11:54 pm)28.98 in (2:39 am)
Wind Speed22.5 mph32.2 mph (12:54 pm)
Wind Gust47.2 mph (2:17 pm)
Weather ElementAverage
Visibility7.3 mi
Wind DirectionWSW (251.3 °)

Weather ElementTotal
Precipitation0.68 in
Heating Degree Days25.2 (Base 65)
Averaged from 38 records on January 31, 2013
WEATHER CONDITIONS BREAKOUT
WIND DIRECTION BREAKOUT
WEATHER BY HOUR - JANUARY 31, 2013
[ °C ]   °F
Local TimeTemperatureDewpointHumidityBarometerVisibilityWind DirectionWind SpeedGust SpeedPrecipitationEventsConditions
1:54 AM52.0 °F50.0 °F93 %29.00 in6.0 miSouth (170°)6.9 mph0.06 inRainLight Rain
2:21 AM53.6 °F51.8 °F94 %28.99 in10.0 miSouth (180°)6.9 mph0.03 inRainLight Rain
2:39 AM53.6 °F50.0 °F88 %28.98 in2.0 miWSW (240°)15.0 mph20.7 mph0.12 inRainHeavy Rain
2:44 AM53.6 °F50.0 °F88 %28.98 in3.0 miWSW (240°)11.5 mph20.7 mph0.13 inRainRain
2:54 AM52.0 °F48.0 °F86 %29.00 in6.0 miWest (280°)27.6 mph42.6 mph0.15 inRainLight Rain
3:16 AM46.4 °F41.0 °F81 %29.04 in8.0 miWSW (250°)23.0 mph40.3 mph0.03 inRainLight Rain
3:54 AM43.0 °F37.9 °F82 %29.05 in6.0 miWest (260°)21.9 mph33.4 mph0.08 inRainRain
4:04 AM42.8 °F35.6 °F76 %29.06 in6.0 miWSW (250°)20.7 mph38.0 mph0.02 inRainRain
4:26 AM41.0 °F35.6 °F81 %29.06 in10.0 miWSW (250°)16.1 mph28.8 mph0.03 inRainLight Rain
4:54 AM41.0 °F32.0 °F70 %29.08 in10.0 miWSW (250°)21.9 mph35.7 mph0.03 inRainLight Rain
5:33 AM39.2 °F30.2 °F70 %29.09 in10.0 miWest (260°)25.3 mph34.5 mph0.00 inRainLight Rain
5:54 AM39.9 °F30.9 °F70 %29.10 in10.0 miWSW (250°)24.2 mph34.5 mph0.00 inRainLight Rain
6:54 AM37.9 °F28.0 °F68 %29.16 in10.0 miWest (260°)18.4 mph36.8 mph0.00 inOvercast
7:27 AM37.4 °F26.6 °F65 %29.19 in10.0 miWSW (250°)25.3 mph40.3 mph0.00 inMostly Cloudy
7:54 AM37.0 °F25.0 °F62 %29.23 in9.0 miWSW (250°)31.1 mph44.9 mph0.00 inOvercast
8:54 AM36.0 °F21.0 °F55 %29.28 in10.0 miWSW (250°)26.5 mph35.7 mph0.00 inOvercast
9:54 AM35.1 °F21.9 °F59 %29.32 in2.5 miWSW (250°)19.6 mph41.4 mph0.00 inSnowLight Snow
9:58 AM33.8 °F23.0 °F65 %29.32 in1.0 miWSW (250°)26.5 mph41.4 mph0.00 inSnowLight Snow
10:04 AM30.2 °F24.8 °F80 %29.32 in1.0 miWSW (250°)23.0 mph34.5 mph0.00 inSnowLight Snow
10:09 AM32.0 °F23.0 °F69 %29.32 in2.0 miWSW (250°)21.9 mph32.2 mph0.00 inSnowLight Snow
10:16 AM30.2 °F21.2 °F69 %29.33 in9.0 miWSW (250°)20.7 mph31.1 mph0.00 inOvercast
10:54 AM35.1 °F17.1 °F48 %29.35 in10.0 miWest (260°)28.8 mph41.4 mph0.00 inOvercast
11:54 AM32.0 °F18.0 °F56 %29.36 in8.0 miWSW (250°)24.2 mph31.1 mph0.00 inSnowLight Snow
12:54 PM33.1 °F17.1 °F52 %29.40 in6.0 miWest (270°)32.2 mph46.0 mph0.00 inSnowLight Snow
1:45 PM30.2 °F19.4 °F64 %29.42 in1.8 miWest (260°)27.6 mph38.0 mph0.00 inSnowLight Snow
1:54 PM30.9 °F19.0 °F61 %29.43 in4.0 miWest (270°)28.8 mph39.1 mph0.00 inSnowLight Snow
2:17 PM32.0 °F17.6 °F55 %29.44 in1.8 miWest (260°)25.3 mph47.2 mph0.00 inSnowLight Snow
2:24 PM33.8 °F15.8 °F48 %29.44 in3.0 miWSW (250°)27.6 mph39.1 mph0.00 inSnowLight Snow
2:54 PM32.0 °F12.9 °F45 %29.46 in10.0 miWSW (250°)27.6 mph40.3 mph0.00 inOvercast
3:54 PM34.0 °F12.0 °F40 %29.49 in10.0 miWest (260°)24.2 mph40.3 mph0.00 inScattered Clouds
4:54 PM33.1 °F9.0 °F37 %29.52 in10.0 miWest (270°)23.0 mph38.0 mphMostly Cloudy
5:54 PM30.9 °F10.0 °F42 %29.56 in10.0 miWest (270°)21.9 mph39.1 mphMostly Cloudy
6:54 PM28.9 °F10.0 °F45 %29.58 in10.0 miWest (260°)23.0 mph31.1 mphOvercast
7:54 PM28.0 °F12.0 °F51 %29.60 in10.0 miWest (270°)21.9 mph28.8 mphOvercast
8:54 PM30.9 °F10.9 °F43 %29.62 in10.0 miWest (260°)24.2 mph36.8 mphOvercast
9:54 PM30.9 °F10.0 °F42 %29.64 in10.0 miWSW (240°)23.0 mph31.1 mphOvercast
10:54 PM28.9 °F12.9 °F51 %29.65 in10.0 miWest (260°)19.6 mph27.6 mphOvercast
11:54 PM26.1 °F10.9 °F53 %29.66 in10.0 miWSW (250°)17.3 mph26.5 mphOvercast
Hourly data recorded from KFZY, located miles away from Fulton, New York







STORIES FROM OUR PARTNERS